Home   Weather   Thompson   Past weeks

Flag for Canada Past Weather in Thompson, Manitoba, Canada — Yesterday and Last 2 Weeks

Now
73 °F

Passing clouds.


Feels Like: 76 °F
Forecast: 47 / 83 °F
Wind: 3 mph from East

Location: Thompson

Current Time: Jul 21, 2017 at 5:45:47 pm

Latest Report: Jul 21, 2017 at 5:00 pm


Visibility: 15 mi

Pressure: 29.95 "Hg

Humidity: 27%

Dew Point: 37 °F

Location of ThompsonLocation

Past Weather in Thompson — Graph

°F

Thompson Temperature Yesterday

Maximum temperature yesterday: 64 °F (at 3:00 pm)
Minimum temperature yesterday: 39 °F (at 6:00 am)
Average temperature yesterday: 54 °F

High & Low Weather Summary for the Past Weeks

 TemperatureHumidityPressure
High84 °F (Jul 13, 4:00 pm)100% (Jul 8, 2:00 am)30.20 "Hg (Jul 8, 2:00 am)
Low34 °F (Jul 12, 5:00 am)23% (Jul 12, 4:00 pm)29.42 "Hg (Jul 17, 8:00 am)
Average61 °F65%29.91 "Hg
* Reported Jul 6 4:00 pm — Jul 21 4:00 pm, Thompson. Weather by CustomWeather, © 2017

Note: Actual official high and low records may vary slightly from our data, if they occured in-between our weather recording intervals... More about our weather records

Advertising

Thompson Weather History for the Previous 24 Hours

Scroll right to see more
 ConditionsComfort  
Time TempWeatherWind HumidityBarometerVisibility
4:00 pm
Fri, Jul 21
73 °FPassing clouds.2 mph27%29.97 "Hg15 mi
3:00 pm73 °FPassing clouds.6 mph29%29.98 "Hg15 mi
2:00 pm72 °FPassing clouds.No wind29%29.98 "Hg15 mi
1:00 pm70 °FPassing clouds.6 mph31%29.99 "Hg15 mi
12:00 pm68 °FPassing clouds.3 mph33%30.01 "Hg15 mi
11:00 am66 °FPassing clouds.3 mph37%30.01 "Hg15 mi
10:00 am64 °FPassing clouds.6 mph46%30.02 "Hg15 mi
9:00 am61 °FPassing clouds.6 mph52%30.02 "Hg15 mi
8:00 am54 °FPassing clouds.5 mph67%30.03 "Hg15 mi
7:00 am43 °FPassing clouds.2 mph87%30.03 "Hg15 mi
6:00 am34 °FPassing clouds.2 mph93%30.02 "Hg15 mi
5:00 am34 °FPassing clouds.2 mph100%30.01 "Hg15 mi
4:00 am37 °FPassing clouds.2 mph93%30.01 "Hg15 mi
3:00 am36 °FPassing clouds.No wind93%30.01 "Hg15 mi
2:00 am39 °FClear.No wind87%30.01 "Hg15 mi
1:00 am39 °FClear.No wind87%29.99 "Hg15 mi
12:00 am43 °FPassing clouds.No wind81%30.00 "Hg15 mi
11:00 pm
Thu, Jul 20
46 °FPassing clouds.No wind82%29.99 "Hg15 mi
10:00 pm52 °FPassing clouds.No wind67%29.98 "Hg15 mi
9:00 pm59 °FPassing clouds.6 mph48%29.97 "Hg15 mi
8:00 pm63 °FPassing clouds.9 mph39%29.96 "Hg15 mi
7:00 pm63 °FScattered clouds.13 mph39%29.96 "Hg15 mi
6:00 pm64 °FScattered clouds.14 mph37%29.95 "Hg15 mi
5:00 pm64 °FPassing clouds.8 mph37%29.96 "Hg15 mi
Weather by CustomWeather, © 2017

See weather overviewHow to use our weather pages